H1 CPF 2 NER 2025 9 11 9 254 01 glonass142 H2 2001801 9142 45358 2025 9 11 0 0 0 2025 9 14 23 45 0 900 1 1 0 0 0 1 H9 10 0 60929 0.00000 0 21048208.597 -13682810.377 -4588162.080 10 0 60929 900.00000 0 21299876.468 -13991909.391 -1408205.976 10 0 60929 1800.00000 0 21202189.707 -14099626.220 1799062.616 10 0 60929 2700.00000 0 20786202.916 -13960532.372 4971455.789 10 0 60929 3600.00000 0 20093180.856 -13537674.428 8047495.398 10 0 60929 4500.00000 0 19172738.244 -12804346.758 10967597.937 10 0 60929 5400.00000 0 18080650.181 -11745443.853 13675220.492 10 0 60929 6300.00000 0 16876425.477 -10358335.421 16117946.222 10 0 60929 7200.00000 0 15620744.593 -8653227.283 18248489.186 10 0 60929 8100.00000 0 14372869.190 -6652992.385 20025600.000 10 0 60929 9000.00000 0 13188131.090 -4392478.074 21414855.888 10 0 60929 9900.00000 0 12115604.914 -1917317.268 22389320.775 10 0 60929 10800.00000 0 11196060.839 717708.576 22930063.500 10 0 60929 11700.00000 0 10460282.308 3450688.475 23026524.728 10 0 60929 12600.00000 0 9927818.406 6214901.018 22676725.664 10 0 60929 13500.00000 0 9606222.812 8941339.319 21887314.392 10 0 60929 14400.00000 0 9490811.180 11561338.941 20673448.366 10 0 60929 15300.00000 0 9564947.504 14009201.313 19058514.378 10 0 60929 16200.00000 0 9800848.138 16224704.987 17073690.197 10 0 60929 17100.00000 0 10160870.532 18155401.149 14757354.938 10 0 60929 18000.00000 0 10599233.417 19758598.178 12154358.142 10 0 60929 18900.00000 0 11064096.778 21002952.450 9315160.435 10 0 60929 19800.00000 0 11499914.422 21869598.549 6294861.320 10 0 60929 20700.00000 0 11849959.932 22352770.954 3152132.329 10 0 60929 21600.00000 0 12058918.905 22459890.481 -51924.022 10 0 60929 22500.00000 0 12075436.968 22211111.256 -3254967.078 10 0 60929 23400.00000 0 11854514.450 21638346.888 -6394638.875 10 0 60929 24300.00000 0 11359644.690 20783816.795 -9409788.191 10 0 60929 25200.00000 0 10564603.601 19698174.195 -12241672.849 10 0 60929 26100.00000 0 9454812.840 18438295.319 -14835115.524 10 0 60929 27000.00000 0 8028217.063 17064823.951 -17139589.323 10 0 60929 27900.00000 0 6295636.528 15639575.832 -19110210.960 10 0 60929 28800.00000 0 4280578.732 14222913.404 -20708621.329 10 0 60929 29700.00000 0 2018515.904 12871202.399 -21903735.882 10 0 60929 30600.00000 0 -444342.146 11634458.028 -22672350.033 10 0 60929 31500.00000 0 -3052728.829 10554280.109 -22999587.958 10 0 60929 32400.00000 0 -5744385.175 9662163.888 -22879186.450 10 0 60929 33300.00000 0 -8452421.731 8978256.985 -22313608.904 10 0 60929 34200.00000 0 -11107879.361 8510613.813 -21313987.879 10 0 60929 35100.00000 0 -13642382.356 8254977.511 -19899898.111 10 0 60929 36000.00000 0 -15990773.476 8195097.053 -18098965.070 10 0 60929 36900.00000 0 -18093621.558 8303564.577 -15946317.365 10 0 60929 37800.00000 0 -19899497.848 8543136.059 -13483894.228 10 0 60929 38700.00000 0 -21366927.092 8868478.163 -10759622.063 10 0 60929 39600.00000 0 -22465933.141 9228266.321 -7826476.560 10 0 60929 40500.00000 0 -23179115.954 9567544.446 -4741448.986 10 0 60929 41400.00000 0 -23502216.556 9830245.919 -1564437.044 10 0 60929 42300.00000 0 -23444147.944 9961768.944 1642917.863 10 0 60929 43200.00000 0 -23026492.285 9911497.291 4818424.299 10 0 60929 44100.00000 0 -22282486.922 9635160.057 7900542.282 10 0 60929 45000.00000 0 -21255542.922 9096931.016 10829569.450 10 0 60929 45900.00000 0 -19997359.122 8271179.213 13548789.382 10 0 60929 46800.00000 0 -18565711.186 7143797.215 16005560.472 10 0 60929 47700.00000 0 -17022008.337 5713051.036 18152325.064 10 0 60929 48600.00000 0 -15428719.686 3989915.678 19947520.326 10 0 60929 49500.00000 0 -13846777.119 1997881.442 21356374.259 10 0 60929 50400.00000 0 -12333062.368 -227762.042 22351572.414 10 0 60929 51300.00000 0 -10938082.192 -2641135.726 22913783.300 10 0 60929 52200.00000 0 -9703927.634 -5187426.456 23032032.876 10 0 60929 53100.00000 0 -8662601.674 -7804920.824 22703921.144 10 0 60929 54000.00000 0 -7834784.375 -10427335.141 21935676.511 10 0 60929 54900.00000 0 -7229086.705 -12986346.787 20742046.286 10 0 60929 55800.00000 0 -6841824.192 -15414223.538 19146024.526 10 0 60929 56700.00000 0 -6657320.090 -17646443.042 17178421.252 10 0 60929 57600.00000 0 -6648725.831 -19624194.495 14877279.976 10 0 60929 58500.00000 0 -6779324.896 -21296658.797 12287153.390 10 0 60929 59400.00000 0 -7004265.830 -22622972.100 9458249.916 10 0 60929 60300.00000 0 -7272651.808 -23573790.336 6445466.598 10 0 60929 61200.00000 0 -7529898.711 -24132388.489 3307326.393 10 0 60929 62100.00000 0 -7720261.796 -24295247.670 104840.244 10 0 60929 63000.00000 0 -7789423.388 -24072104.460 -3099683.790 10 0 60929 63900.00000 0 -7687030.928 -23485459.699 -6243860.561 10 0 60929 64800.00000 0 -7369076.373 -22569566.920 -9266452.286 10 0 60929 65700.00000 0 -6800014.417 -21368942.894 -12108572.479 10 0 60929 66600.00000 0 -5954527.942 -19936463.284 -14714844.549 10 0 60929 67500.00000 0 -4818864.087 -18331124.164 -17034491.308 10 0 60929 68400.00000 0 -3391682.679 -16615564.482 -19022333.104 10 0 60929 69300.00000 0 -1684379.643 -14853454.665 -20639674.300 10 0 60929 70200.00000 0 279129.542 -13106862.083 -21855060.354 10 0 60929 71100.00000 0 2463158.231 -11433704.762 -22644890.612 10 0 60929 72000.00000 0 4821498.086 -9885400.741 -22993874.979 10 0 60929 72900.00000 0 7299117.695 -8504811.679 -22895326.013 10 0 60929 73800.00000 0 9834239.487 -7324566.554 -22351281.289 10 0 60929 74700.00000 0 12360708.173 -6365834.869 -21372454.343 10 0 60929 75600.00000 0 14810551.907 -5637599.524 -19978015.874 10 0 60929 76500.00000 0 17116629.373 -5136458.234 -18195210.139 10 0 60929 77400.00000 0 19215252.557 -4846959.980 -16058814.694 10 0 60929 78300.00000 0 21048676.165 -4742460.423 -13610454.598 10 0 60929 79200.00000 0 22567350.457 -4786458.396 -10897784.914 10 0 60929 80100.00000 0 23731844.199 -4934355.409 -7973557.935 10 0 60929 81000.00000 0 24514358.514 -5135562.547 -4894593.667 10 0 60929 81900.00000 0 24899769.562 -5335864.627 -1720673.866 10 0 60929 82800.00000 0 24886157.796 -5479941.024 1486618.562 10 0 60929 83700.00000 0 24484803.029 -5513936.169 4665092.197 10 0 60929 84600.00000 0 23719646.832 -5387971.002 7753148.659 10 0 60929 85500.00000 0 22626245.922 -5058489.350 10690969.967 10 0 60930 0.00000 0 21250261.339 -4490340.488 13421668.893 10 0 60930 900.00000 0 19645546.387 -3658509.887 15892382.107 10 0 60930 1800.00000 0 17871915.329 -2549426.157 18055282.134 10 0 60930 2700.00000 0 15992683.381 -1161788.068 19868494.396 10 0 60930 3600.00000 0 14072081.834 493122.918 21296898.930 10 0 60930 4500.00000 0 12172654.593 2391658.887 22312803.740 10 0 60930 5400.00000 0 10352743.641 4498542.692 22896477.375 10 0 60930 6300.00000 0 8664167.019 6768097.164 23036531.020 10 0 60930 7200.00000 0 7150184.948 9145916.977 22730142.979 10 0 60930 8100.00000 0 5843837.852 11570915.724 21983121.061 10 0 60930 9000.00000 0 4766724.811 13977665.124 20809801.131 10 0 60930 9900.00000 0 3928273.028 16298930.982 19232782.862 10 0 60930 10800.00000 0 3325528.656 18468301.988 17282506.597 10 0 60930 11700.00000 0 2943477.868 20422803.094 14996678.087 10 0 60930 12600.00000 0 2755885.040 22105385.177 12419550.827 10 0 60930 13500.00000 0 2726613.169 23467187.212 9601078.566 10 0 60930 14400.00000 0 2811371.296 24469476.036 6595953.309 10 0 60930 15300.00000 0 2959815.334 25085181.717 3462546.800 10 0 60930 16200.00000 0 3117913.419 25299963.128 261775.739 10 0 60930 17100.00000 0 3230475.166 25112757.852 -2944087.061 10 0 60930 18000.00000 0 3243736.829 24535792.213 -6092631.826 10 0 60930 18900.00000 0 3107891.509 23594050.167 -9122536.642 10 0 60930 19800.00000 0 2779455.627 22324222.822 -11974772.937 10 0 60930 20700.00000 0 2223369.587 20773182.629 -14593766.845 10 0 60930 21600.00000 0 1414741.860 18996046.652 -16928492.623 10 0 60930 22500.00000 0 340160.881 17053910.849 -18933475.742 10 0 60930 23400.00000 0 -1001482.253 15011351.339 -20569685.278 10 0 60930 24300.00000 0 -2598696.400 12933798.366 -21805297.719 10 0 60930 25200.00000 0 -4427631.927 10884893.831 -22616317.119 10 0 60930 26100.00000 0 -6452851.790 8923943.681 -22987039.652 10 0 60930 27000.00000 0 -8628600.309 7103572.003 -22910353.887 10 0 60930 27900.00000 0 -10900516.688 5467674.735 -22387871.500 10 0 60930 28800.00000 0 -13207721.646 4049757.940 -21429886.561 10 0 60930 29700.00000 0 -15485189.847 2871728.956 -20055164.903 10 0 60930 30600.00000 0 -17666308.999 1943189.446 -18290568.372 10 0 60930 31500.00000 0 -19685518.669 1261258.067 -16170521.948 10 0 60930 32400.00000 0 -21480918.762 810928.065 -13736334.719 10 0 60930 33300.00000 0 -22996738.988 565942.634 -11035388.419 10 0 60930 34200.00000 0 -24185566.596 490149.123 -8120209.840 10 0 60930 35100.00000 0 -25010239.953 539273.209 -5047445.533 10 0 60930 36000.00000 0 -25445329.654 663036.651 -1876759.064 10 0 60930 36900.00000 0 -25478146.202 807528.064 1330327.461 10 0 60930 37800.00000 0 -25109233.194 917725.803 4511625.001 10 0 60930 38700.00000 0 -24352326.450 940065.937 7605479.214 10 0 60930 39600.00000 0 -23233781.783 824946.764 10551958.986 10 0 60930 40500.00000 0 -21791496.131 529064.241 13294009.266 10 0 60930 41400.00000 0 -20073367.633 17480.032 15778546.500 10 0 60930 42300.00000 0 -18135359.146 -734664.745 17957476.269 10 0 60930 43200.00000 0 -16039245.782 -1740862.159 19788614.418 10 0 60930 44100.00000 0 -13850139.777 -3002430.802 21236494.891 10 0 60930 45000.00000 0 -11633894.906 -4508224.274 22273049.653 10 0 60930 45900.00000 0 -9454497.304 -6234868.022 22878148.385 10 0 60930 46800.00000 0 -7371549.938 -8147516.109 23039988.159 10 0 60930 47700.00000 0 -5437954.082 -10201098.033 22755325.806 10 0 60930 48600.00000 0 -3697882.996 -12342005.637 22029548.353 10 0 60930 49500.00000 0 -2185131.148 -14510151.882 20876579.652 10 0 60930 50400.00000 0 -921907.012 -16641317.687 19318624.080 10 0 60930 51300.00000 0 81880.634 -18669690.797 17385751.056 10 0 60930 52200.00000 0 828813.268 -20530492.177 15115327.035 10 0 60930 53100.00000 0 1333621.975 -22162581.153 12551304.517 10 0 60930 54000.00000 0 1622329.683 -23510930.766 9743380.543 10 0 60930 54900.00000 0 1730912.159 -24528869.532 6746039.858 10 0 60930 55800.00000 0 1703534.024 -25179994.931 3617500.616 10 0 60930 56700.00000 0 1590434.388 -25439677.256 418582.788 10 0 60930 57600.00000 0 1445551.885 -25296089.352 -2788478.633 10 0 60930 58500.00000 0 1323990.405 -24750717.556 -5941251.897 10 0 60930 59400.00000 0 1279433.994 -23818331.124 -8978333.649 10 0 60930 60300.00000 0 1361621.897 -22526410.433 -11840555.957 10 0 60930 61200.00000 0 1613992.389 -20914057.372 -14472150.387 10 0 60930 62100.00000 0 2071596.921 -19030433.537 -16821845.258 10 0 60930 63000.00000 0 2759374.613 -16932791.954 -18843873.621 10 0 60930 63900.00000 0 3690861.644 -14684185.450 -20498871.454 10 0 60930 64800.00000 0 4867391.398 -12350948.378 -21754648.105 10 0 60930 65700.00000 0 6277820.226 -10000057.830 -22586813.753 10 0 60930 66600.00000 0 7898791.140 -7696485.344 -22979251.786 10 0 60930 67500.00000 0 9695524.875 -5500650.093 -22924427.253 10 0 60930 68400.00000 0 11623105.373 -3466079.881 -22423525.953 10 0 60930 69300.00000 0 13628205.788 -1637377.154 -21486422.084 10 0 60930 70200.00000 0 15651182.632 -48573.961 -20131475.815 10 0 60930 71100.00000 0 17628450.220 1278056.819 -18385165.422 10 0 60930 72000.00000 0 19495035.897 2332686.099 -16281561.795 10 0 60930 72900.00000 0 21187209.011 3118082.522 -13861656.186 10 0 60930 73800.00000 0 22645073.740 3649231.527 -11172554.787 10 0 60930 74700.00000 0 23815017.392 3952437.842 -8266556.333 10 0 60930 75600.00000 0 24651912.134 4063951.295 -5200131.074 10 0 60930 76500.00000 0 25120978.520 4028175.737 -2032821.308 10 0 60930 77400.00000 0 25199233.475 3895538.135 1173914.879 10 0 60930 78300.00000 0 24876462.941 3720108.908 4357894.081 10 0 60930 79200.00000 0 24155679.271 3557074.694 7457409.182 10 0 60930 80100.00000 0 23053045.008 3460170.596 10412418.974 10 0 60930 81000.00000 0 21597266.875 3479180.305 13165703.138 10 0 60930 81900.00000 0 19828485.671 3657609.345 15663960.894 10 0 60930 82800.00000 0 17796708.515 4030629.210 17858832.806 10 0 60930 83700.00000 0 15559848.567 4623378.693 19707826.972 10 0 60930 84600.00000 0 13181453.250 5449693.750 21175132.726 10 0 60930 85500.00000 0 10728214.591 6511319.448 22232307.084 10 0 60931 0.00000 0 8267364.183 7797637.551 22858821.523 10 0 60931 900.00000 0 5864058.303 9285922.887 23042459.383 10 0 60931 1800.00000 0 3578863.665 10942117.476 22779555.754 10 0 60931 2700.00000 0 1465442.431 12722094.074 22075076.227 10 0 60931 3600.00000 0 -431465.218 14573356.695 20942531.513 10 0 60931 4500.00000 0 -2077679.355 16437109.698 19403729.116 10 0 60931 5400.00000 0 -3450771.622 18250610.805 17488365.579 10 0 60931 6300.00000 0 -4540760.317 19949711.270 15233465.769 10 0 60931 7200.00000 0 -5350280.277 21471478.066 12682678.669 10 0 60931 8100.00000 0 -5894220.368 22756788.873 9885441.915 10 0 60931 9000.00000 0 -6198843.705 23752791.104 6896030.194 10 0 60931 9900.00000 0 -6300427.451 24415121.186 3772505.233 10 0 60931 10800.00000 0 -6243479.618 24709789.824 575587.423 10 0 60931 11700.00000 0 -6078608.488 24614652.619 -2632528.859 10 0 60931 12600.00000 0 -5860135.349 24120402.565 -5789392.592 10 0 60931 13500.00000 0 -5643552.592 23231041.158 -8833521.537 10 0 60931 14400.00000 0 -5482936.052 21963806.871 -11705610.753 10 0 60931 15300.00000 0 -5428422.746 20348562.949 -14349699.345 10 0 60931 16200.00000 0 -5523862.424 18426669.581 -16714271.535 10 0 60931 17100.00000 0 -5804743.983 16249387.482 -18753269.496 10 0 60931 18000.00000 0 -6296485.982 13875880.000 -20426997.374 10 0 60931 18900.00000 0 -7013164.786 11370897.763 -21702898.359 10 0 60931 19800.00000 0 -7956735.085 8802243.283 -22556189.459 10 0 60931 20700.00000 0 -9116776.377 6238122.011 -22970341.685 10 0 60931 21600.00000 0 -10470776.533 3744490.800 -22937396.668 10 0 60931 22500.00000 0 -11984940.690 1382514.489 -22458114.074 10 0 60931 23400.00000 0 -13615491.425 -793763.603 -21541947.603 10 0 60931 24300.00000 0 -15310405.426 -2739440.854 -20206850.753 10 0 60931 25200.00000 0 -17011513.511 -4420381.191 -18478916.845 10 0 60931 26100.00000 0 -18656875.596 -5814381.324 -16391860.960 10 0 60931 27000.00000 0 -20183330.784 -6911830.626 -13986354.531 10 0 60931 27900.00000 0 -21529115.488 -7715839.291 -11309226.027 10 0 60931 28800.00000 0 -22636439.769 -8241831.719 -8412543.820 10 0 60931 29700.00000 0 -23453913.998 -8516624.540 -5352599.483 10 0 60931 30600.00000 0 -23938724.376 -8577030.176 -2188811.626 10 0 60931 31500.00000 0 -24058466.508 -8468046.612 1017428.127 10 0 60931 32400.00000 0 -23792560.709 -8240711.132 4203944.478 10 0 60931 33300.00000 0 -23133190.332 -7949709.584 7308980.036 10 0 60931 34200.00000 0 -22085724.369 -7650842.659 10272385.997 10 0 60931 35100.00000 0 -20668607.100 -7398456.263 13036779.270 10 0 60931 36000.00000 0 -18912719.674 -7242944.214 15548644.257 10 0 60931 36900.00000 0 -16860240.249 -7228428.182 17759358.760 10 0 60931 37800.00000 0 -14563049.912 -7390712.108 19626125.159 10 0 60931 38700.00000 0 -12080750.073 -7755596.785 21112789.886 10 0 60931 39600.00000 0 -9478372.799 -8337625.246 22190536.345 10 0 60931 40500.00000 0 -6823877.938 -9139311.762 22838438.796 10 0 60931 41400.00000 0 -4185539.423 -10150887.337 23043867.104 10 0 60931 42300.00000 0 -1629327.691 -11350573.335 22802734.831 10 0 60931 43200.00000 0 783604.762 -12705373.145 22119585.779 10 0 60931 44100.00000 0 2999231.729 -14172350.457 21007516.804 10 0 60931 45000.00000 0 4972660.789 -15700342.455 19487937.486 10 0 60931 45900.00000 0 6669757.355 -17232038.093 17590170.111 10 0 60931 46800.00000 0 8068318.145 -18706336.042 15350896.303 10 0 60931 47700.00000 0 9158745.348 -20060884.800 12813459.566 10 0 60931 48600.00000 0 9944193.292 -21234699.185 10027035.919 10 0 60931 49500.00000 0 10440181.352 -22170743.628 7045687.545 10 0 60931 50400.00000 0 10673689.213 -22818373.286 3927317.102 10 0 60931 51300.00000 0 10681772.548 -23135529.403 732542.641 10 0 60931 52200.00000 0 10509757.648 -23090595.144 -2476484.914 10 0 60931 53100.00000 0 10209091.751 -22663832.103 -5637298.110 10 0 60931 54000.00000 0 9834940.718 -21848335.225 -8688338.632 10 0 60931 54900.00000 0 9443636.821 -20650464.216 -11570167.250 10 0 60931 55800.00000 0 9090086.023 -19089731.835 -14226633.212 10 0 60931 56700.00000 0 8825245.972 -17198152.589 -16605979.060 10 0 60931 57600.00000 0 8693782.974 -15019078.472 -18661858.283 10 0 60931 58500.00000 0 8732008.450 -12605570.238 -20354245.085 10 0 60931 59400.00000 0 8966183.330 -10018372.447 -21650218.017 10 0 60931 60300.00000 0 9411262.924 -7323577.221 -22524602.006 10 0 60931 61200.00000 0 10070135.865 -4590074.706 -22960456.325 10 0 60931 62100.00000 0 10933389.498 -1886896.948 -22949399.351 10 0 60931 63000.00000 0 11979611.645 719433.932 -22491764.340 10 0 60931 63900.00000 0 13176215.802 3167442.848 -21596583.800 10 0 60931 64800.00000 0 14480754.682 5403018.963 -20281403.495 10 0 60931 65700.00000 0 15842666.424 7381417.377 -18571930.381 10 0 60931 66600.00000 0 17205379.529 9068863.132 -16501522.028 10 0 60931 67500.00000 0 18508687.635 10443692.361 -14110528.042 10 0 60931 68400.00000 0 19691293.961 11496984.916 -11445496.887 10 0 60931 69300.00000 0 20693418.242 12232664.271 -8558264.039 10 0 60931 70200.00000 0 21459356.540 12667062.817 -5504939.640 10 0 60931 71100.00000 0 21939886.463 12827973.084 -2344815.697 10 0 60931 72000.00000 0 22094416.937 12753226.814 860785.634 10 0 60931 72900.00000 0 21892792.630 12488863.430 4049700.159 10 0 60931 73800.00000 0 21316677.681 12086966.365 7160123.129 10 0 60931 74700.00000 0 20360461.084 11603259.331 10131800.907 10 0 60931 75600.00000 0 19031646.124 11094564.229 12907190.167 10 0 60931 76500.00000 0 17350707.681 10616227.874 15432562.780 10 0 60931 77400.00000 0 15350423.263 10219625.557 17659035.816 10 0 60931 78300.00000 0 13074705.256 9949846.040 19543507.673 10 0 60931 79200.00000 0 10576982.283 9843654.707 21049483.321 10 0 60931 80100.00000 0 7918195.936 9927819.965 22147773.688 10 0 60931 81000.00000 0 5164494.736 10217872.846 22817056.557 10 0 60931 81900.00000 0 2384719.412 10717351.879 23044288.823 10 0 60931 82800.00000 0 -352217.842 11417565.331 22824962.393 10 0 60931 83700.00000 0 -2979953.200 12297881.640 22163198.765 10 0 60931 84600.00000 0 -5437183.045 13326537.102 21071679.920 10 0 60931 85500.00000 0 -7669964.866 14461928.482 19571416.003 10 0 60932 0.00000 0 -9633712.531 15654337.881 17691353.276 10 0 60932 900.00000 0 -11294804.564 16848019.765 15467827.430 10 0 60932 1800.00000 0 -12631736.169 17983562.267 12943874.016 10 0 60932 2700.00000 0 -13635770.417 19000426.682 10168404.610 10 0 60932 3600.00000 0 -14311058.519 19839557.183 7195265.977 10 0 60932 4500.00000 0 -14674224.984 20445951.428 4082198.776 10 0 60932 5400.00000 0 -14753434.776 20771082.921 889715.818 10 0 60932 6300.00000 0 -14586981.706 20775071.819 -2320078.230 10 0 60932 7200.00000 0 -14221457.903 20428511.003 -5484702.193 10 0 60932 8100.00000 0 -13709582.208 19713868.585 -8542524.231 10 0 60932 9000.00000 0 -13107780.195 18626405.810 -11433973.202 10 0 60932 9900.00000 0 -12473619.325 17174569.920 -14102710.639 10 0 60932 10800.00000 0 -11863209.018 15379843.916 -16496739.291 10 0 60932 11700.00000 0 -11328677.032 13276058.341 -18569425.548 10 0 60932 12600.00000 0 -10915830.127 10908193.217 -20280414.943 10 0 60932 13500.00000 0 -10662099.001 8330719.950 -21596422.346 10 0 60932 14400.00000 0 -10594855.118 5605552.462 -22491881.236 10 0 60932 15300.00000 0 -10730170.991 2799693.335 -22949439.448 10 0 60932 16200.00000 0 -11072076.337 -17326.607 -22960292.076 10 0 60932 17100.00000 0 -11612341.305 -2776108.400 -22524345.580 10 0 60932 18000.00000 0 -12330795.479 -5410033.887 -21650210.525 10 0 60932 18900.00000 0 -13196168.582 -7857793.503 -20355023.822 10 0 60932 19800.00000 0 -14167416.745 -10065688.288 -18664104.608 10 0 60932 20700.00000 0 -15195477.737 -11989611.226 -16610451.162 10 0 60932 21600.00000 0 -16225380.521 -13596626.704 -14234089.248 10 0 60932 22500.00000 0 -17198619.710 -14866083.966 -11581285.133 10 0 60932 23400.00000 0 -18055694.455 -15790219.995 -8703639.086 10 0 60932 24300.00000 0 -18738704.543 -16374228.799 -5657077.465 10 0 60932 25200.00000 0 -19193894.304 -16635796.420 -2500763.307 10 0 60932 26100.00000 0 -19374037.255 -16604123.275 704053.060 10 0 60932 27000.00000 0 -19240561.326 -16318476.817 3895220.926 10 0 60932 27900.00000 0 -18765325.569 -15826336.919 7010890.553 10 0 60932 28800.00000 0 -17931973.974 -15181213.158 9990705.848 10 0 60932 29700.00000 0 -16736809.806 -14440226.540 12776965.608 10 0 60932 30600.00000 0 -15189153.875 -13661557.636 15315731.477 10 0 60932 31500.00000 0 -13311171.570 -12901868.327 17557861.965 10 0 60932 32400.00000 0 -11137175.447 -12213804.999 19459953.472 10 0 60932 33300.00000 0 -8712431.602 -11643687.431 20985171.242 10 0 60932 34200.00000 0 -6091518.414 -11229479.613 22103955.121 10 0 60932 35100.00000 0 -3336304.415 -10999126.986 22794587.468 10 0 60932 36000.00000 0 -513627.524 -10969329.367 23043612.862 10 0 60932 36900.00000 0 2307229.868 -11144800.916 22846101.829 10 0 60932 37800.00000 0 5057167.175 -11518048.448 22205753.446 10 0 60932 38700.00000 0 7669886.061 -12069678.092 21134834.344 10 0 60932 39600.00000 0 10084397.881 -12769218.494 19653954.409 10 0 60932 40500.00000 0 12247315.158 -13576427.307 17791682.337 10 0 60932 41400.00000 0 14114832.654 -14443027.524 15584007.056 10 0 60932 42300.00000 0 15654315.916 -15314801.929 13073654.004 10 0 60932 43200.00000 0 16845431.069 -16133958.601 10309268.120 10 0 60932 44100.00000 0 17680768.433 -16841668.459 7344478.219 10 0 60932 45000.00000 0 18165933.482 -17380667.959 4236860.139 10 0 60932 45900.00000 0 18319100.952 -17697816.671 1046818.417 10 0 60932 46800.00000 0 18170050.659 -17746500.753 -2163591.723 10 0 60932 47700.00000 0 17758725.609 -17488779.351 -5331878.592 10 0 60932 48600.00000 0 17133373.558 -16897181.486 -8396339.979 10 0 60932 49500.00000 0 16348351.078 -15956075.592 -11297275.843 10 0 60932 50400.00000 0 15461683.854 -14662551.981 -13978162.802 10 0 60932 51300.00000 0 14532487.430 -13026779.212 -16386766.357 10 0 60932 52200.00000 0 13618358.614 -11071817.846 -18476168.042 10 0 60932 53100.00000 0 12772848.984 -8832898.243 -20205686.612 10 0 60932 54000.00000 0 12043128.189 -6356191.900 -21541674.755 10 0 60932 54900.00000 0 11467936.472 -3697127.337 -22458175.567 10 0 60932 55800.00000 0 11075913.189 -918320.830 -22937426.052 10 0 60932 56700.00000 0 10884371.847 1912791.609 -22970198.145 10 0 60932 57600.00000 0 10898572.959 4726522.156 -22555971.173 10 0 60932 58500.00000 0 11111524.712 7453591.945 -21702932.983 10 0 60932 59400.00000 0 11504318.944 10027774.047 -20427810.450 10 0 60932 60300.00000 0 12046987.235 12388408.974 -18755533.344 10 0 60932 61200.00000 0 12699839.926 14482688.661 -16718738.773 10 0 60932 62100.00000 0 13415230.590 16267614.786 -14357126.482 10 0 60932 63000.00000 0 14139670.589 17711551.170 -11716678.081 10 0 60932 63900.00000 0 14816203.777 18795307.092 -8848755.945 10 0 60932 64800.00000 0 15386940.615 19512708.174 -5809099.756 10 0 60932 65700.00000 0 15795644.442 19870632.962 -2656740.553 10 0 60932 66600.00000 0 15990260.701 19888515.708 547146.263 10 0 60932 67500.00000 0 15925282.510 19597338.136 3740426.518 10 0 60932 68400.00000 0 15563853.078 19038154.172 6861208.443 10 0 60932 69300.00000 0 14879516.684 18260210.930 9849036.258 10 0 60932 70200.00000 0 13857544.770 17318745.808 12646053.410 10 0 60932 71100.00000 0 12495781.530 16272552.639 15198113.578 10 0 60932 72000.00000 0 10804973.387 15181419.145 17455818.682 10 0 60932 72900.00000 0 8808568.115 14103542.819 19375464.817 10 0 60932 73800.00000 0 6541991.195 13093032.968 20919878.884 10 0 60932 74700.00000 0 4051428.418 12197602.722 22059130.739 10 0 60932 75600.00000 0 1392163.919 11456546.845 22771108.053 10 0 60932 76500.00000 0 -1373459.097 10899089.177 23041943.459 10 0 60932 77400.00000 0 -4178372.160 10543168.399 22866286.040 10 0 60932 78300.00000 0 -6953315.092 10394712.682 22247411.929 10 0 60932 79200.00000 0 -9629466.128 10447433.796 21197171.383 10 0 60932 80100.00000 0 -12141061.155 10683149.822 19735772.494 10 0 60932 81000.00000 0 -14427894.687 11072623.781 17891404.557 10 0 60932 81900.00000 0 -16437599.582 11576883.999 15699706.953 10 0 60932 82800.00000 0 -18127611.070 12148971.812 13203092.380 10 0 60932 83700.00000 0 -19466733.306 12736043.956 10449936.126 10 0 60932 84600.00000 0 -20436242.748 13281741.757 7493645.932 10 0 60932 85500.00000 0 -21030481.657 13728727.364 4391629.690 99